Regional Weather Roundup
Issued by NWS

Home | Current Version | Previous Version | Graphics & Text | Print | Product List | Glossary On
Versions: 1 2 3 4 5 6 7 8 9 10 11 12 13 14 15 16 17 18 19 20 21 22 23 24 25 26 27 28 29 30 31 32 33 34 35 36 37 38 39 40 41 42 43 44 45 46 47 48 49 50
000
ASUS43 KFSD 031002
RWRSD

WEATHER ROUNDUP FOR SOUTH DAKOTA
NATIONAL WEATHER SERVICE SIOUX FALLS SD
500 AM CDT MON AUG 03 2015

NOTE: "FAIR" INDICATES FEW OR NO CLOUDS BELOW 12,000 FEET WITH NO
SIGNIFICANT WEATHER AND/OR OBSTRUCTIONS TO VISIBILITY.


SDZ001>005-009-010-012>017-031100-
NORTHWEST AND NORTH CENTRAL SOUTH DAKOTA

CITY           SKY/WX    TMP DP  RH WIND       PRES   REMARKS
BUFFALO          N/A     59  48  67 E7        29.98S
FAITH            N/A     58  48  69 E6        30.02R
MOBRIDGE       CLEAR     58  58 100 N6        29.97R
$$

SDZ012>016-024>037-041>051-057-063-072>074-031100-
SOUTHWEST AND SOUTH CENTRAL SOUTH DAKOTA

CITY           SKY/WX    TMP DP  RH WIND       PRES   REMARKS
RAPID CTY ARPT CLEAR     57  52  83 CALM      30.03S
PIERRE         CLEAR     57  53  86 CALM      29.97R
CUSTER         CLEAR     57  48  72 NE5       30.14F
PHILIP         MOCLDY    63  54  72 NE6       29.98S
PINE RIDGE     CLEAR     65  57  75 E8        30.00F
WINNER         FAIR      63  55  75 S9        29.99R
$$

SDZ004>011-016>023-039-040-031100-
NORTHEAST SOUTH DAKOTA

CITY           SKY/WX    TMP DP  RH WIND       PRES   REMARKS
ABERDEEN       CLEAR     54  50  86 NW3       29.95S
WATERTOWN      CLEAR     57  53  86 CALM      29.95S
BROOKINGS      CLEAR     54  52  94 CALM      29.98R
SISSETON         N/A     54  49  83 N3        29.92S
$$

SDZ017-020-022-023-036>040-048>070-031100-
SOUTHEAST SOUTH DAKOTA

CITY           SKY/WX    TMP DP  RH WIND       PRES   REMARKS
SIOUX FALLS    CLEAR     59  56  89 CALM      29.96R
HURON          CLEAR     58  57  97 CALM      29.95S
CHAMBERLAIN    CLEAR     60  57  91 CALM      29.97S
MITCHELL       CLEAR     60  58  92 NW3       29.97R
YANKTON        CLEAR     59  55  88 CALM      29.95S
$$

ABBREVIATIONS USED IN REMARKS
   TC - TEMPERATURE IN CELSIUS
  WCI - WIND CHILL INDEX
   HX - HEAT INDEX
  VSB - VISIBILITY




USA.gov is the U.S. government's official web portal to all federal, state and local government web resources and services.